Weather History for Basrah, Iraq

Change the Weather History Date:

Friday, February 15, 2013

  Actual Average Record
Temperature  
Mean Temperature 62 °F -  
Max Temperature 77 °F - - ()
Min Temperature 46 °F - - ()
Degree Days  
Heating Degree Days 4    
Growing Degree Days 12 (Base 50)    
Moisture  
Dew Point 42 °F    
Average Humidity 46    
Maximum Humidity 76    
Minimum Humidity 20    
Precipitation  
Precipitation 0.00 in - - ()
Sea Level Pressure  
Sea Level Pressure 30.04 in    
Wind  
Wind Speed 2 mph ()    
Max Wind Speed 13 mph    
Max Gust Speed -    
Visibility 6.0 miles    
Events      
T = Trace of Precipitation, MM = Missing Value Source: Averaged Metar Reports

Daily Weather History Graph

Daily Weather History Graph

Search for Another Location

Airport:

Trip Planner

Search our weather history database for the weather conditions in past years. The results will help you decide how hot, cold, wet, or windy it might be!

Date:

Astronomy

Feb. 15, 2013 Rise Set
Actual Time 6:29 AM AST 5:36 PM AST
Civil Twilight 6:04 AM AST 6:01 PM AST
Nautical Twilight 5:36 AM AST 6:29 PM AST
Astronomical Twilight 5:08 AM AST 6:57 PM AST
Moon 9:18 AM AST (2/15) 10:48 PM AST (2/15)
Length of Visible Light 11h 56m
Length of Day
11h 07m
Waxing Crescent, 27% of the Moon is Illuminated
Feb 15
Waxing Crescent
Feb 17
First Quarter
Feb 25
Full
Mar 5
Last Quarter
Mar 11
New

Hourly Weather History & Observations

Time (AST) Temp. Dew Point Humidity Pressure Visibility Wind Dir Wind Speed Gust Speed Precip Events Conditions
12:00 AM 57 °F 44 °F 52% 30.09 in 6 mi West 8.9 mph - -  
12:00 AM 53.6 °F 42.8 °F 67% 30.06 in - Calm Calm - N/A   Clear
1:00 AM 50.0 °F 41.0 °F 71% 30.06 in - Calm Calm - N/A   Clear
2:00 AM 50.0 °F 41.0 °F 71% 30.06 in - Calm Calm - N/A   Clear
3:00 AM 71 °F 42 °F 24% 30.06 in 6 mi Calm Calm - -  
3:00 AM 50.0 °F 41.0 °F 71% 30.04 in - Calm Calm - N/A   Clear
4:00 AM 48.2 °F 41.0 °F 76% 30.04 in - Calm Calm - N/A   Clear
5:00 AM 46.4 °F 39.2 °F 76% 30.06 in - Calm Calm - N/A   Clear
6:00 AM 50 °F 43 °F 68% 30.09 in 6 mi West 2.3 mph - -  
6:00 AM 46.4 °F 37.4 °F 71% 30.09 in - Calm Calm - N/A   Clear
9:00 AM 53 °F 41 °F 53% 30.14 in 6 mi West 6.7 mph - -   Clear
9:00 AM 57.2 °F 46.4 °F 67% 30.12 in - Calm Calm - N/A   Clear
10:00 AM 62.6 °F 48.2 °F 59% 30.09 in - Calm Calm - N/A   Clear
11:00 AM 66.2 °F 44.6 °F 46% 30.09 in - Calm Calm - N/A   Clear
12:00 PM 70 °F 45 °F 29% 30.08 in 6 mi Calm Calm - -   Clear
12:00 PM 71.6 °F 42.8 °F 35% 30.06 in - Calm Calm - N/A   Clear
1:00 PM 73.4 °F 37.4 °F 27% 30.04 in - Calm Calm - N/A   Clear
3:00 PM 76 °F 43 °F 20% 30.02 in 6 mi West 4.5 mph - -   Clear
3:00 PM 77.0 °F 35.6 °F 22% 30.01 in - Calm Calm - N/A   Clear
4:00 PM 77.0 °F 37.4 °F 24% 30.01 in - Calm Calm - N/A   Clear
5:00 PM 75.2 °F 35.6 °F 24% 30.01 in - Calm Calm - N/A   Clear
6:00 PM 73 °F 41 °F 21% 30.00 in 6 mi Calm Calm - -   Clear
6:00 PM 73.4 °F 37.4 °F 27% 30.01 in - Calm Calm - N/A   Clear
7:00 PM 71.6 °F 35.6 °F 27% 30.01 in - Calm Calm - N/A   Clear
8:00 PM 68.0 °F 42.8 °F 40% 29.98 in - East 9.2 mph - N/A   Clear
9:00 PM 66 °F 45 °F 35% 30.00 in 6 mi SSE 13.4 mph - -   Clear
9:00 PM 68.0 °F 42.8 °F 40% 30.01 in - Calm Calm - N/A   Clear
10:00 PM 64.4 °F 46.4 °F 52% 29.98 in - SE 11.5 mph - N/A   Clear
11:00 PM 64.4 °F 44.6 °F 49% 29.98 in - SE 10.4 mph - N/A   Clear